Tracking 29892 objects as of 21-Nov-2024
HD Live streaming from Space Station
objects crossing your sky now

ARIANE 44L DEB

Track ARIANE 44L DEB now!


NORAD ID: 33588
Int'l Code: 1991-003R
Perigee: 530.5 km
Apogee: 30,589.7 km
Inclination: 7.5 °
Period: 538.7 minutes
Semi major axis: 21931 km
RCS: 0.1208 m2 (medium)
Launch date: January 15, 1991
Source: France (FR)
Launch site: FRENCH GUIANA (FRGUI)

Note: This is SATELLITE DEBRIS
Your satellite tracking list
Your tracking list is empty




NASA's NSSDC Master Catalog

Two Line Element Set (TLE):
1 33588U 91003R   24324.40664112  .00001387  00000-0  89797-2 0  9990
2 33588   7.5009 288.0086 6853084 335.2856 144.2103  2.67308395123619
Source of the keplerian elements: AFSPC